Weather in Gorodische

Russia / Penza Oblast     53°16′21″N   45°42′09″E
temp.,
°C
wind,
m/s
gust,
m/s
humid.,
%
clouds,
%
prec.,
mm/h
press.,
hPa
HPBL,
m
8 august, mon
mon800:00+18ene22635 0.0 101932
03:00+18e1161100 0.0 101912
06:00+20e116135 0.0 102022
09:00+26ene11421 0.0 1020483
12:00+30ne113029 0.0 10203141
15:00+27ene244498 0.0 1019209
18:00+26ene224856 0.0 101940
21:00+20e34612 0.0 102053
9 august, tue
tue900:00+18ese11645 0.0 102011
03:00+17e1164100 0.0 102011
06:00+19ene1164100 0.0 102017
09:00+26e22425 0.0 1020543
12:00+29ne23315 0.0 10192568
15:00+30ene43295 0.0 10192753
18:00+26e23474 0.0 101868
21:00+21ese345850 0.0 101957
10 august, wed
wed1000:00+19se33626 0.0 101940
03:00+18sse226659 0.0 101823
06:00+19sse236560 0.0 101973
09:00+27ssw344380 0.0 1018661
12:00+29wsw3334100 0.0 10181371
15:00+30wnw343273 0.0 10171297
18:00+26n3550100 0.0 1017138
21:00+21ne3769100 0.0 1019172
11 august, thu
thu1100:00+18n4885100 0.2 1019184
03:00+17nne3894100 0.8 1020228
06:00+16nne389284 0.1 1021300
09:00+20n4656100 0.1 1022643
12:00+24n45385 0.0 10221224
15:00+24nne55390 0.0 10221422
18:00+21nne46480 0.0 1022760
21:00+14nne37700 0.0 1024104
12 august, fri
fri1200:00+13ne22750 0.0 102517
03:00+12nne22755 0.0 102411
06:00+14n127139 0.0 102556
09:00+21n344617 0.0 1025980
12:00+24nnw33375 0.0 10241914
15:00+26nnw44358 0.0 10232216
18:00+23nnw35465 0.0 1022226
21:00+16n11660 0.0 102311